Location: Haliburton Scout Reserve
(45.0900°N, 78.3200°W)
Time: 16:35:53
(UTC-04:00)

JY1SAT - Pass Details

Date: 25 June 2024
Orbit: 536 x 549 km, 97.5° (Epoch: 11 July)

Event Time Altitude Azimuth Distance (km) Brightness Sun altitude
Exits shadow 21:36:15 - 145° (SE) 2,165 ? -5.2°
Reaches altitude 10° 21:37:07 10° 141° (SE) 1,817 ? -5.3°
Maximum altitude 21:40:49 41° 71° (ENE) 813 ? -5.8°
Drops below altitude 10° 21:44:33 10° 2° (N) 1,837 ? -6.3°
Sets 21:46:46 0° 355° (N) 2,737 ? -6.6°
